Flag for China Weather past 2 weeks in Foochow, Fujian, China

Now
54 °F

Overcast.


Feels Like: 51 °F
Forecast: 47 / 58 °F
Wind: 8 mph from Northeast

Location: Fuzhou Airport

Current Time: Dec 27, 2014 at 11:52:34 PM

Latest Report: Dec 27, 2014 at 11:00 PM


Visibility: N/A

Pressure: 30.27 "Hg

Humidity: 72%

Dew point: 45 °F

Location of FoochowLocation

Historic Weather in Foochow — Graph

°F

Foochow temperature yesterday

Maximum temperature yesterday: 54 °F (at 12:00 AM)
Minimum temperature yesterday: 50 °F (at 7:00 AM)
Average temperature yesterday: 53 °F

Past Weeks' High & Low Weather Summary

 TemperatureHumidityPressure
High66 °F (Dec 24, 10:00 AM)88% (Dec 19, 1:00 PM)30.51 "Hg (Dec 19, 1:00 PM)
Low45 °F (Dec 17, 7:00 AM)28% (Dec 17, 10:00 AM)30.12 "Hg (Dec 15, 2:00 PM)
Average53 °F60%30.31 "Hg
* Reported Dec 12 10:00 PM — Dec 27 10:00 PM, Foochow, Weather by CustomWeather, © 2014

Note: Actual official high and low records may vary slightly from our data, if they occured in-between our weather recording intervals... More about our weather records

Advertising

Foochow weather history for previous 24 hours

 ConditionsComfort  
Time TempWeatherWind HumidityBarometerVisibility
10:00 PM
Dec 27
54 °FOvercast.8 mph72%30.30 "HgN/A
9:00 PM54 °FOvercast.8 mph72%30.33 "HgN/A
8:00 PM54 °FOvercast.10 mph77%30.30 "HgN/A
7:00 PM54 °FLight rain. Overcast.15 mph77%30.30 "HgN/A
6:00 PM54 °FLight rain. Overcast.13 mph82%30.30 "HgN/A
5:00 PM54 °FLight rain. Overcast.17 mph77%30.27 "HgN/A
4:00 PM55 °FLight rain. Overcast.17 mph72%30.27 "HgN/A
3:00 PM55 °FLight rain. Mostly cloudy.15 mph72%30.24 "HgN/A
2:00 PM55 °FLight rain. Overcast.10 mph77%30.24 "HgN/A
1:00 PM57 °FLight rain. Overcast.10 mph67%30.27 "HgN/A
12:00 PM57 °FLight rain. Partly sunny.13 mph67%30.27 "HgN/A
11:00 AM55 °FPartly sunny.10 mph72%30.33 "HgN/A
10:00 AM55 °FLight rain. Broken clouds.8 mph72%30.30 "HgN/A
9:00 AM54 °FPassing clouds.3 mph72%30.33 "HgN/A
8:00 AM52 °FLight rain. Partly sunny.6 mph77%30.30 "HgN/A
7:00 AM52 °FLight rain. Partly sunny.8 mph77%30.27 "Hg6 mi
6:00 AM54 °FPassing clouds.8 mph67%30.27 "HgN/A
5:00 AM54 °FPassing clouds.8 mph67%30.24 "HgN/A
4:00 AM52 °FLight rain. Passing clouds.3 mph72%30.24 "HgN/A
3:00 AM54 °FLight rain. Passing clouds.8 mph67%30.24 "HgN/A
2:00 AM54 °FOvercast.8 mph67%30.27 "HgN/A
1:00 AM54 °FOvercast.6 mph67%30.24 "HgN/A
12:00 AM54 °FOvercast.8 mph67%30.27 "HgN/A
11:00 PM
Dec 26
54 °FPassing clouds.13 mph72%30.27 "HgN/A
Weather by CustomWeather, © 2014

See weather overviewHow to use our weather pages